| time (UTC) | temp F | wind direction | speed knots | gust knots | rain 1hr in | rain 24hr in | rain mn in | humidity % | barometer mb |
| 20260506162320 | 65 | 144 | 0.0 | 1.7 | 0.00 | 0.00 | 0.00 | 77 | 1010.6 |
| 20260506161817 | 65 | 143 | 0.0 | 1.7 | 0.00 | 0.00 | 0.00 | 77 | 1010.8 |
| 20260506161314 | 65 | 145 | 0.9 | 2.6 | 0.00 | 0.00 | 0.00 | 78 | 1010.7 |
| 20260506160812 | 65 | 133 | 1.7 | 1.7 | 0.00 | 0.00 | 0.00 | 77 | 1010.7 |
| 20260506160308 | 65 | 141 | 0.9 | 2.6 | 0.00 | 0.00 | 0.00 | 77 | 1010.5 |
| 20260506155807 | 65 | 163 | 2.6 | 2.6 | 0.00 | 0.00 | 0.00 | 76 | 1010.9 |
| 20260506155305 | 65 | 139 | 0.9 | 1.7 | 0.00 | 0.00 | 0.00 | 76 | 1011.1 |
| 20260506153415 | 66 | 142 | 0.9 | 2.6 | 0.00 | 0.00 | 0.00 | 74 | 1011.0 |
| 20260506152913 | 66 | 205 | 5.2 | 7.8 | 0.00 | 0.00 | 0.00 | 74 | 1011.1 |
| 20260506152410 | 67 | 276 | 1.7 | 2.6 | 0.00 | 0.00 | 0.00 | 74 | 1011.1 |
| 20260506151908 | 66 | 153 | 0.9 | 1.7 | 0.00 | 0.00 | 0.00 | 74 | 1011.2 |
| 20260506151405 | 66 | 147 | 0.0 | 2.6 | 0.00 | 0.00 | 0.00 | 75 | 1011.0 |
| 20260506150902 | 66 | 140 | 0.9 | 1.7 | 0.00 | 0.00 | 0.00 | 75 | 1011.1 |
| 20260506150358 | 66 | 143 | 1.7 | 2.6 | 0.00 | 0.00 | 0.00 | 75 | 1011.2 |
| 20260506145855 | 66 | 208 | 2.6 | 6.1 | 0.00 | 0.00 | 0.00 | 74 | 1010.8 |
| 20260506145351 | 66 | 184 | 4.3 | 7.0 | 0.00 | 0.00 | 0.00 | 74 | 1011.0 |
| 20260506144849 | 66 | 141 | 0.0 | 2.6 | 0.00 | 0.00 | 0.00 | 75 | 1011.0 |
| 20260506144345 | 66 | 166 | 1.7 | 1.7 | 0.00 | 0.00 | 0.00 | 74 | 1011.2 |
| 20260506143844 | 66 | 140 | 0.9 | 1.7 | 0.00 | 0.00 | 0.00 | 74 | 1011.0 |
| 20260506143341 | 66 | 142 | 1.7 | 1.7 | 0.00 | 0.00 | 0.00 | 75 | 1011.1 |
| 20260506142839 | 65 | 237 | 2.6 | 6.1 | 0.00 | 0.00 | 0.00 | 75 | 1011.3 |
| 20260506142337 | 65 | 144 | 2.6 | 4.3 | 0.00 | 0.00 | 0.00 | 75 | 1011.4 |
| 20260506141835 | 65 | 199 | 1.7 | 6.1 | 0.00 | 0.00 | 0.00 | 75 | 1011.6 |
| 20260506141333 | 65 | 192 | 3.5 | 4.3 | 0.00 | 0.00 | 0.00 | 75 | 1011.3 |
| 20260506140830 | 66 | 203 | 5.2 | 8.7 | 0.00 | 0.00 | 0.00 | 75 | 1011.2 |
| 20260506140327 | 66 | 169 | 0.9 | 1.7 | 0.00 | 0.00 | 0.00 | 76 | 1011.1 |
| 20260506135824 | 66 | 140 | 2.6 | 6.1 | 0.00 | 0.00 | 0.00 | 75 | 1011.1 |
| 20260506135320 | 65 | 140 | 0.0 | 1.7 | 0.00 | 0.00 | 0.00 | 76 | 1011.0 |
| 20260506134817 | 65 | 160 | 0.9 | 1.7 | 0.00 | 0.00 | 0.00 | 77 | 1011.1 |
| 20260506134313 | 65 | 151 | 1.7 | 1.7 | 0.00 | 0.00 | 0.00 | 77 | 1011.3 |
| 20260506133811 | 65 | 163 | 2.6 | 2.6 | 0.00 | 0.00 | 0.00 | 76 | 1011.5 |
| 20260506133307 | 65 | 165 | 1.7 | 2.6 | 0.00 | 0.00 | 0.00 | 77 | 1011.1 |
| 20260506132804 | 65 | 151 | 0.9 | 1.7 | 0.00 | 0.00 | 0.00 | 78 | 1011.1 |
| 20260506132301 | 64 | 155 | 1.7 | 4.3 | 0.00 | 0.00 | 0.00 | 78 | 1011.3 |
| 20260506131759 | 64 | 158 | 0.9 | 6.1 | 0.00 | 0.00 | 0.00 | 77 | 1011.2 |
| 20260506131255 | 65 | 140 | 0.9 | 0.9 | 0.00 | 0.00 | 0.00 | 77 | 1011.2 |
| 20260506130752 | 65 | 130 | 2.6 | 2.6 | 0.00 | 0.00 | 0.00 | 77 | 1011.2 |
| 20260506130249 | 64 | 195 | 1.7 | 2.6 | 0.00 | 0.00 | 0.00 | 79 | 1011.1 |
| 20260506125747 | 63 | 152 | 1.7 | 1.7 | 0.00 | 0.00 | 0.00 | 79 | 1011.4 |
| 20260506125244 | 63 | 154 | 0.9 | 2.6 | 0.00 | 0.00 | 0.00 | 79 | 1011.1 |
| 20260506124743 | 63 | 176 | 0.9 | 2.6 | 0.00 | 0.00 | 0.00 | 79 | 1011.3 |
| 20260506124240 | 63 | 160 | 2.6 | 4.3 | 0.00 | 0.00 | 0.00 | 80 | 1011.3 |
| 20260506123737 | 63 | 151 | 0.9 | 5.2 | 0.00 | 0.00 | 0.00 | 80 | 1011.5 |
| 20260506123236 | 62 | 135 | 0.9 | 1.7 | 0.00 | 0.00 | 0.00 | 81 | 1011.7 |
| 20260506122732 | 62 | 147 | 0.0 | 0.9 | 0.00 | 0.00 | 0.00 | 82 | 1011.5 |
| 20260506122230 | 62 | 137 | 0.9 | 1.7 | 0.00 | 0.00 | 0.00 | 82 | 1011.7 |
| 20260506121728 | 62 | 150 | 0.0 | 0.9 | 0.00 | 0.00 | 0.00 | 81 | 1011.8 |
| 20260506121224 | 62 | 146 | 1.7 | 1.7 | 0.00 | 0.00 | 0.00 | 82 | 1011.8 |
| 20260506120722 | 62 | 141 | 0.9 | 0.9 | 0.00 | 0.00 | 0.00 | 82 | 1011.6 |
| 20260506120219 | 61 | 148 | 0.9 | 1.7 | 0.00 | 0.00 | 0.00 | 83 | 1011.8 |
| 20260506115717 | 61 | 129 | 2.6 | 2.6 | 0.00 | 0.00 | 0.00 | 83 | 1011.6 |
| 20260506115215 | 60 | 139 | 0.9 | 2.6 | 0.00 | 0.00 | 0.00 | 84 | 1011.6 |
| 20260506114712 | 60 | 136 | 0.0 | 0.9 | 0.00 | 0.00 | 0.00 | 84 | 1011.5 |
| 20260506114210 | 60 | 135 | 0.0 | 0.0 | 0.00 | 0.00 | 0.00 | 85 | 1011.7 |
| 20260506113708 | 59 | 130 | 0.0 | 0.0 | 0.00 | 0.00 | 0.00 | 86 | 1011.4 |
| 20260506113205 | 59 | 135 | 0.0 | 0.9 | 0.00 | 0.00 | 0.00 | 86 | 1011.6 |
| 20260506112701 | 59 | 134 | 0.9 | 1.7 | 0.00 | 0.00 | 0.00 | 86 | 1011.8 |
| 20260506112159 | 59 | 126 | 0.9 | 1.7 | 0.00 | 0.00 | 0.00 | 86 | 1011.7 |
| 20260506111656 | 59 | 134 | 0.0 | 0.9 | 0.00 | 0.00 | 0.00 | 86 | 1011.6 |
| 20260506111154 | 59 | 135 | 0.9 | 0.9 | 0.00 | 0.00 | 0.00 | 86 | 1011.7 |
| 20260506110651 | 59 | 130 | 1.7 | 1.7 | 0.00 | 0.00 | 0.00 | 87 | 1011.6 |
| 20260506110149 | 58 | 136 | 0.9 | 1.7 | 0.00 | 0.00 | 0.00 | 87 | 1011.7 |
| 20260506105645 | 58 | 138 | 0.0 | 0.0 | 0.00 | 0.00 | 0.00 | 88 | 1012.2 |
| 20260506105142 | 57 | 134 | 0.0 | 0.0 | 0.00 | 0.00 | 0.00 | 89 | 1012.0 |
| 20260506104640 | 57 | 134 | 0.0 | 0.0 | 0.00 | 0.00 | 0.00 | 89 | 1011.8 |
| 20260506104137 | 57 | 134 | 0.0 | 0.0 | 0.00 | 0.00 | 0.00 | 90 | 1011.8 |
| 20260506103634 | 57 | 131 | 0.0 | 0.0 | 0.00 | 0.00 | 0.00 | 91 | 1011.7 |
| 20260506103131 | 56 | 131 | 0.0 | 0.0 | 0.00 | 0.00 | 0.00 | 91 | 1011.7 |
| 20260506102630 | 56 | 130 | 0.0 | 0.0 | 0.00 | 0.00 | 0.00 | 92 | 1011.6 |
| 20260506102126 | 55 | 134 | 0.0 | 0.0 | 0.00 | 0.00 | 0.00 | 93 | 1011.7 |
| 20260506101623 | 55 | 130 | 0.0 | 0.0 | 0.00 | 0.00 | 0.00 | 93 | 1011.7 |
| 20260506101120 | 55 | 131 | 0.0 | 0.0 | 0.00 | 0.00 | 0.00 | 93 | 1011.5 |
| 20260506100619 | 54 | 128 | 0.0 | 0.0 | 0.00 | 0.00 | 0.00 | 93 | 1011.5 |
| 20260506100116 | 54 | 127 | 0.0 | 0.0 | 0.00 | 0.00 | 0.00 | 93 | 1011.5 |
| 20260506095615 | 54 | 121 | 0.0 | 1.7 | 0.00 | 0.00 | 0.00 | 93 | 1011.6 |
| 20260506095111 | 55 | 128 | 0.0 | 0.9 | 0.00 | 0.00 | 0.00 | 93 | 1011.6 |
| 20260506094609 | 54 | 120 | 0.9 | 1.7 | 0.00 | 0.00 | 0.00 | 93 | 1011.6 |
| 20260506094106 | 54 | 124 | 0.0 | 2.6 | 0.00 | 0.00 | 0.00 | 93 | 1011.4 |
| 20260506093604 | 54 | 131 | 0.9 | 0.9 | 0.00 | 0.00 | 0.00 | 93 | 1011.6 |
| 20260506093101 | 54 | 151 | 0.9 | 1.7 | 0.00 | 0.00 | 0.00 | 92 | 1011.4 |
| 20260506092559 | 54 | 119 | 0.0 | 0.9 | 0.00 | 0.00 | 0.00 | 93 | 1011.3 |
| 20260506092056 | 54 | 119 | 0.9 | 0.9 | 0.00 | 0.00 | 0.00 | 93 | 1011.6 |
| 20260506091554 | 54 | 118 | 0.9 | 1.7 | 0.00 | 0.00 | 0.00 | 92 | 1011.5 |
| 20260506091051 | 54 | 120 | 0.9 | 0.9 | 0.00 | 0.00 | 0.00 | 92 | 1011.7 |
| 20260506090549 | 54 | 122 | 0.0 | 0.9 | 0.00 | 0.00 | 0.00 | 92 | 1011.6 |
| 20260506090045 | 54 | 115 | 0.0 | 0.9 | 0.00 | 0.00 | 0.00 | 92 | 1011.7 |
| 20260506085542 | 54 | 126 | 0.0 | 0.9 | 0.00 | 0.00 | 0.00 | 92 | 1011.6 |
| 20260506085038 | 54 | 126 | 0.0 | 0.0 | 0.00 | 0.00 | 0.00 | 92 | 1011.8 |
| 20260506084536 | 55 | 126 | 0.0 | 0.0 | 0.00 | 0.00 | 0.00 | 91 | 1011.8 |
| 20260506084031 | 55 | 126 | 0.0 | 0.9 | 0.00 | 0.00 | 0.00 | 91 | 1011.9 |
| 20260506083529 | 55 | 126 | 0.0 | 0.0 | 0.00 | 0.00 | 0.00 | 91 | 1011.9 |
| 20260506083026 | 55 | 127 | 0.0 | 0.0 | 0.00 | 0.00 | 0.00 | 91 | 1011.7 |
| 20260506082523 | 55 | 121 | 0.0 | 0.0 | 0.00 | 0.00 | 0.00 | 91 | 1011.8 |
| 20260506082018 | 55 | 131 | 0.0 | 0.0 | 0.00 | 0.00 | 0.00 | 91 | 1011.9 |
| 20260506081517 | 55 | 130 | 0.0 | 0.0 | 0.00 | 0.00 | 0.00 | 91 | 1012.0 |
| 20260506081014 | 55 | 130 | 0.0 | 0.0 | 0.00 | 0.00 | 0.00 | 91 | 1011.7 |
| 20260506080511 | 55 | 131 | 0.0 | 0.0 | 0.00 | 0.00 | 0.00 | 90 | 1011.7 |
| 20260506073455 | 55 | 130 | 0.0 | 0.9 | 0.00 | 0.00 | 0.00 | 89 | 1011.8 |
| 20260506072952 | 56 | 130 | 0.0 | 0.0 | 0.00 | 0.00 | 0.00 | 89 | 1011.8 |
| 20260506072449 | 56 | 130 | 0.0 | 0.0 | 0.00 | 0.00 | 0.00 | 88 | 1011.9 |
| 20260506071947 | 56 | 130 | 0.0 | 0.0 | 0.00 | 0.00 | 0.00 | 88 | 1011.9 |
| 20260506071445 | 57 | 130 | 0.0 | 0.0 | 0.00 | 0.00 | 0.00 | 87 | 1011.9 |
| 20260506070941 | 57 | 129 | 0.9 | 0.9 | 0.00 | 0.00 | 0.00 | 86 | 1011.8 |
| 20260506070438 | 57 | 130 | 0.0 | 0.0 | 0.00 | 0.00 | 0.00 | 86 | 1012.0 |
| 20260506062416 | 58 | 124 | 0.0 | 0.9 | 0.00 | 0.00 | 0.00 | 84 | 1011.6 |
| 20260506061912 | 58 | 126 | 0.0 | 0.0 | 0.00 | 0.00 | 0.00 | 83 | 1011.8 |
| 20260506061408 | 58 | 126 | 0.0 | 0.0 | 0.00 | 0.00 | 0.00 | 83 | 1011.6 |
| 20260506060906 | 59 | 126 | 0.0 | 0.0 | 0.00 | 0.00 | 0.00 | 82 | 1011.7 |
| 20260506060404 | 59 | 126 | 0.0 | 0.9 | 0.00 | 0.00 | 0.00 | 81 | 1011.9 |
| 20260506051336 | 61 | 157 | 1.7 | 1.7 | 0.00 | 0.00 | 0.00 | 77 | 1012.0 |
| 20260506050834 | 61 | 160 | 1.7 | 2.6 | 0.00 | 0.00 | 0.00 | 77 | 1012.1 |
| 20260506050331 | 61 | 137 | 0.0 | 1.7 | 0.00 | 0.00 | 0.00 | 77 | 1012.2 |
| 20260506044821 | 61 | 135 | 0.0 | 0.9 | 0.00 | 0.00 | 0.00 | 76 | 1012.4 |
| 20260506044319 | 61 | 162 | 0.9 | 1.7 | 0.00 | 0.00 | 0.00 | 76 | 1012.2 |
| 20260506043816 | 61 | 235 | 3.5 | 5.2 | 0.00 | 0.00 | 0.00 | 75 | 1012.3 |
| 20260506043313 | 62 | 143 | 0.9 | 2.6 | 0.00 | 0.00 | 0.00 | 74 | 1012.1 |
| 20260506042812 | 62 | 141 | 0.9 | 1.7 | 0.00 | 0.00 | 0.00 | 75 | 1012.4 |
| 20260506042311 | 62 | 165 | 0.9 | 1.7 | 0.00 | 0.00 | 0.00 | 75 | 1012.3 |
| 20260506041809 | 62 | 194 | 2.6 | 4.3 | 0.00 | 0.00 | 0.00 | 74 | 1012.2 |
| 20260506041305 | 62 | 147 | 0.9 | 0.9 | 0.00 | 0.00 | 0.00 | 74 | 1012.3 |
| 20260506040802 | 62 | 140 | 0.0 | 0.0 | 0.00 | 0.00 | 0.00 | 74 | 1012.3 |
| 20260506040259 | 62 | 140 | 0.9 | 0.9 | 0.00 | 0.00 | 0.00 | 73 | 1012.2 |
| 20260506035756 | 62 | 143 | 0.0 | 1.7 | 0.00 | 0.00 | 0.00 | 73 | 1012.2 |
| 20260506035253 | 62 | 141 | 0.0 | 0.9 | 0.00 | 0.00 | 0.00 | 73 | 1012.5 |
| 20260506034750 | 63 | 148 | 0.0 | 5.2 | 0.00 | 0.00 | 0.00 | 72 | 1012.4 |
| 20260506034248 | 63 | 148 | 0.0 | 2.6 | 0.00 | 0.00 | 0.00 | 71 | 1012.3 |
| 20260506033744 | 64 | 154 | 1.7 | 1.7 | 0.00 | 0.00 | 0.00 | 70 | 1012.4 |
| 20260506033241 | 64 | 139 | 0.9 | 2.6 | 0.00 | 0.00 | 0.00 | 69 | 1012.3 |
| 20260506032738 | 64 | 156 | 2.6 | 4.3 | 0.00 | 0.00 | 0.00 | 69 | 1012.3 |
| 20260506032235 | 64 | 139 | 1.7 | 2.6 | 0.00 | 0.00 | 0.00 | 69 | 1012.3 |
| 20260506031732 | 64 | 152 | 1.7 | 1.7 | 0.00 | 0.00 | 0.00 | 70 | 1012.1 |
| 20260506031230 | 63 | 131 | 0.9 | 1.7 | 0.00 | 0.00 | 0.00 | 70 | 1012.2 |
| 20260506030728 | 63 | 84 | 0.0 | 0.9 | 0.00 | 0.00 | 0.00 | 71 | 1012.2 |
| 20260506030225 | 63 | 147 | 0.9 | 2.6 | 0.00 | 0.00 | 0.00 | 71 | 1012.1 |
| 20260506025721 | 63 | 147 | 0.0 | 0.9 | 0.00 | 0.00 | 0.00 | 71 | 1012.1 |
| 20260506025218 | 63 | 137 | 0.0 | 5.2 | 0.00 | 0.00 | 0.00 | 72 | 1012.0 |
| 20260506024715 | 62 | 134 | 0.0 | 0.0 | 0.00 | 0.00 | 0.00 | 72 | 1012.0 |
| 20260506024211 | 62 | 140 | 0.9 | 0.9 | 0.00 | 0.00 | 0.00 | 72 | 1012.2 |
| 20260506023708 | 62 | 136 | 0.0 | 0.0 | 0.00 | 0.00 | 0.00 | 72 | 1011.9 |
| 20260506023205 | 62 | 140 | 0.0 | 0.9 | 0.00 | 0.00 | 0.00 | 72 | 1012.3 |
| 20260506022702 | 62 | 129 | 0.0 | 0.0 | 0.00 | 0.00 | 0.00 | 72 | 1012.3 |
| 20260506022159 | 62 | 162 | 1.7 | 1.7 | 0.00 | 0.00 | 0.00 | 74 | 1012.3 |
| 20260506021657 | 62 | 126 | 0.0 | 0.0 | 0.00 | 0.00 | 0.00 | 73 | 1012.2 |
| 20260506021154 | 63 | 122 | 0.9 | 0.9 | 0.00 | 0.00 | 0.00 | 71 | 1012.0 |
| 20260506020651 | 63 | 143 | 0.0 | 0.0 | 0.00 | 0.00 | 0.00 | 71 | 1012.1 |
| 20260506020149 | 62 | 141 | 0.0 | 0.9 | 0.00 | 0.00 | 0.00 | 71 | 1012.2 |
| 20260506015646 | 63 | 142 | 0.9 | 0.9 | 0.00 | 0.00 | 0.00 | 70 | 1012.1 |
| 20260506015143 | 63 | 156 | 0.9 | 1.7 | 0.00 | 0.00 | 0.00 | 70 | 1011.9 |
| 20260506014641 | 63 | 128 | 0.0 | 0.9 | 0.00 | 0.00 | 0.00 | 69 | 1012.0 |
| 20260506014136 | 63 | 140 | 0.9 | 0.9 | 0.00 | 0.00 | 0.00 | 69 | 1011.9 |
| 20260506013634 | 64 | 135 | 0.0 | 0.0 | 0.00 | 0.00 | 0.00 | 69 | 1011.8 |
| 20260506013131 | 64 | 133 | 0.0 | 0.0 | 0.00 | 0.00 | 0.00 | 68 | 1011.7 |
| 20260506012627 | 64 | 139 | 0.0 | 0.9 | 0.00 | 0.00 | 0.00 | 67 | 1011.7 |
| 20260506012123 | 64 | 130 | 0.0 | 0.9 | 0.00 | 0.00 | 0.00 | 68 | 1011.5 |
| 20260506011616 | 64 | 130 | 0.9 | 0.9 | 0.00 | 0.00 | 0.00 | 68 | 1011.7 |
| 20260506011111 | 64 | 134 | 0.0 | 0.9 | 0.00 | 0.00 | 0.00 | 68 | 1011.6 |
| 20260506010606 | 64 | 144 | 0.9 | 1.7 | 0.00 | 0.00 | 0.00 | 67 | 1011.4 |
| 20260506005559 | 65 | 144 | 0.0 | 0.0 | 0.00 | 0.00 | 0.00 | 66 | 1011.5 |
| 20260506005055 | 65 | 137 | 0.0 | 0.9 | 0.00 | 0.00 | 0.00 | 66 | 1011.3 |
| 20260506004552 | 65 | 130 | 0.9 | 1.7 | 0.00 | 0.00 | 0.00 | 65 | 1011.1 |
| 20260506004049 | 65 | 140 | 0.9 | 1.7 | 0.00 | 0.00 | 0.00 | 65 | 1011.2 |
| 20260506003545 | 66 | 131 | 0.9 | 0.9 | 0.00 | 0.00 | 0.00 | 65 | 1011.0 |
| 20260506003042 | 66 | 140 | 0.0 | 0.0 | 0.00 | 0.00 | 0.00 | 64 | 1010.9 |
| 20260506002537 | 66 | 146 | 0.9 | 2.6 | 0.00 | 0.00 | 0.00 | 64 | 1010.9 |
| 20260506002034 | 66 | 137 | 0.0 | 1.7 | 0.00 | 0.00 | 0.00 | 63 | 1010.7 |
| 20260506001530 | 66 | 141 | 0.0 | 0.9 | 0.00 | 0.00 | 0.00 | 64 | 1010.6 |
| 20260506001027 | 67 | 141 | 0.0 | 1.7 | 0.00 | 0.00 | 0.00 | 64 | 1010.5 |
| 20260506000525 | 67 | 141 | 0.9 | 1.7 | 0.00 | 0.00 | 0.00 | 63 | 1010.7 |
| 20260506000022 | 67 | 140 | 0.0 | 1.7 | 0.00 | 0.00 | 0.00 | 63 | 1010.4 |
| 20260505235520 | 68 | 135 | 0.9 | 1.7 | 0.00 | 0.00 | 0.00 | 62 | 1010.5 |
| 20260505235016 | 68 | 148 | 0.9 | 1.7 | 0.00 | 0.00 | 0.00 | 63 | 1010.1 |
| 20260505234514 | 68 | 148 | 0.9 | 1.7 | 0.00 | 0.00 | 0.00 | 62 | 1010.3 |
| 20260505234010 | 68 | 140 | 0.9 | 2.6 | 0.00 | 0.00 | 0.00 | 62 | 1010.4 |
| 20260505233508 | 68 | 247 | 2.6 | 4.3 | 0.00 | 0.00 | 0.00 | 62 | 1010.1 |
| 20260505233005 | 68 | 134 | 0.9 | 1.7 | 0.00 | 0.00 | 0.00 | 61 | 1010.3 |
| 20260505232503 | 68 | 140 | 0.0 | 5.2 | 0.00 | 0.00 | 0.00 | 62 | 1009.9 |
| 20260505232000 | 69 | 140 | 0.9 | 1.7 | 0.00 | 0.00 | 0.00 | 62 | 1010.0 |
| 20260505231457 | 69 | 140 | 0.0 | 0.9 | 0.00 | 0.00 | 0.00 | 61 | 1010.1 |
| 20260505230955 | 69 | 141 | 0.9 | 1.7 | 0.00 | 0.00 | 0.00 | 61 | 1009.8 |
| 20260505230453 | 69 | 139 | 0.9 | 2.6 | 0.00 | 0.00 | 0.00 | 60 | 1010.0 |
| 20260505225949 | 70 | 151 | 1.7 | 1.7 | 0.00 | 0.00 | 0.00 | 60 | 1010.0 |
| 20260505225446 | 70 | 188 | 2.6 | 4.3 | 0.00 | 0.00 | 0.00 | 60 | 1009.9 |
| 20260505224942 | 70 | 145 | 1.7 | 5.2 | 0.00 | 0.00 | 0.00 | 60 | 1009.6 |
| 20260505224439 | 70 | 151 | 1.7 | 4.3 | 0.00 | 0.00 | 0.00 | 59 | 1009.6 |
| 20260505223936 | 71 | 179 | 2.6 | 5.2 | 0.00 | 0.00 | 0.00 | 58 | 1009.7 |
| 20260505223433 | 71 | 185 | 1.7 | 4.3 | 0.00 | 0.00 | 0.00 | 59 | 1009.5 |
| 20260505222929 | 71 | 156 | 3.5 | 4.3 | 0.00 | 0.00 | 0.00 | 58 | 1009.4 |
| 20260505222426 | 71 | 148 | 0.9 | 2.6 | 0.00 | 0.00 | 0.00 | 58 | 1009.7 |
| 20260505221922 | 71 | 186 | 1.7 | 6.1 | 0.00 | 0.00 | 0.00 | 58 | 1009.9 |
| 20260505221419 | 71 | 180 | 2.6 | 5.2 | 0.00 | 0.00 | 0.00 | 58 | 1009.5 |
| 20260505220916 | 71 | 171 | 2.6 | 2.6 | 0.00 | 0.00 | 0.00 | 58 | 1009.8 |
| 20260505220413 | 72 | 150 | 2.6 | 5.2 | 0.00 | 0.00 | 0.00 | 57 | 1009.8 |
| 20260505215911 | 72 | 162 | 1.7 | 2.6 | 0.00 | 0.00 | 0.00 | 56 | 1009.6 |
| 20260505215409 | 73 | 135 | 1.7 | 4.3 | 0.00 | 0.00 | 0.00 | 56 | 1009.7 |
| 20260505214906 | 73 | 174 | 1.7 | 2.6 | 0.00 | 0.00 | 0.00 | 55 | 1009.9 |
| 20260505214404 | 74 | 141 | 0.9 | 5.2 | 0.00 | 0.00 | 0.00 | 56 | 1009.6 |
| 20260505213901 | 74 | 161 | 2.6 | 5.2 | 0.00 | 0.00 | 0.00 | 55 | 1009.5 |
| 20260505213359 | 74 | 166 | 0.9 | 2.6 | 0.00 | 0.00 | 0.00 | 54 | 1009.4 |
| 20260505212854 | 75 | 196 | 3.5 | 7.0 | 0.00 | 0.00 | 0.00 | 53 | 1009.4 |
| 20260505212352 | 75 | 151 | 2.6 | 4.3 | 0.00 | 0.00 | 0.00 | 53 | 1009.4 |
| 20260505211848 | 75 | 155 | 1.7 | 1.7 | 0.00 | 0.00 | 0.00 | 53 | 1009.4 |
| 20260505211346 | 75 | 141 | 0.9 | 2.6 | 0.00 | 0.00 | 0.00 | 53 | 1009.5 |
| 20260505210842 | 75 | 201 | 1.7 | 4.3 | 0.00 | 0.00 | 0.00 | 53 | 1009.2 |
| 20260505210339 | 75 | 202 | 1.7 | 2.6 | 0.00 | 0.00 | 0.00 | 54 | 1009.3 |
| 20260505205835 | 74 | 158 | 1.7 | 1.7 | 0.00 | 0.00 | 0.00 | 54 | 1009.4 |
| 20260505205334 | 75 | 129 | 0.9 | 2.6 | 0.00 | 0.00 | 0.00 | 53 | 1009.4 |
| 20260505204830 | 75 | 146 | 1.7 | 2.6 | 0.00 | 0.00 | 0.00 | 55 | 1009.3 |
| 20260505204328 | 76 | 221 | 2.6 | 4.3 | 0.00 | 0.00 | 0.00 | 52 | 1009.4 |
| 20260505203826 | 76 | 138 | 0.9 | 4.3 | 0.00 | 0.00 | 0.00 | 53 | 1009.5 |
| 20260505203322 | 76 | 137 | 2.6 | 4.3 | 0.00 | 0.00 | 0.00 | 51 | 1009.2 |
| 20260505202818 | 77 | 148 | 1.7 | 1.7 | 0.00 | 0.00 | 0.00 | 50 | 1009.2 |
| 20260505202314 | 76 | 146 | 0.9 | 4.3 | 0.00 | 0.00 | 0.00 | 51 | 1009.3 |
| 20260505201811 | 76 | 152 | 2.6 | 7.0 | 0.00 | 0.00 | 0.00 | 51 | 1009.4 |
| 20260505201309 | 76 | 153 | 1.7 | 5.2 | 0.00 | 0.00 | 0.00 | 51 | 1009.4 |
| 20260505200807 | 76 | 157 | 2.6 | 2.6 | 0.00 | 0.00 | 0.00 | 51 | 1009.4 |
| 20260505200304 | 76 | 140 | 3.5 | 7.0 | 0.00 | 0.00 | 0.00 | 50 | 1009.7 |
| 20260505195758 | 77 | 132 | 3.5 | 8.7 | 0.00 | 0.00 | 0.00 | 49 | 1009.6 |
| 20260505195257 | 78 | 166 | 2.6 | 4.3 | 0.00 | 0.00 | 0.00 | 49 | 1009.3 |
| 20260505194753 | 78 | 149 | 3.5 | 4.3 | 0.00 | 0.00 | 0.00 | 49 | 1009.5 |
| 20260505194250 | 78 | 144 | 0.9 | 2.6 | 0.00 | 0.00 | 0.00 | 48 | 1009.7 |
| 20260505193746 | 78 | 141 | 3.5 | 5.2 | 0.00 | 0.00 | 0.00 | 50 | 1009.7 |
| 20260505193244 | 79 | 160 | 2.6 | 5.2 | 0.00 | 0.00 | 0.00 | 49 | 1009.7 |
| 20260505192742 | 79 | 139 | 0.9 | 7.0 | 0.00 | 0.00 | 0.00 | 48 | 1009.6 |
| 20260505192239 | 79 | 133 | 0.0 | 7.8 | 0.00 | 0.00 | 0.00 | 49 | 1009.6 |
| 20260505191737 | 80 | 134 | 0.9 | 7.0 | 0.00 | 0.00 | 0.00 | 47 | 1009.5 |
| 20260505191235 | 79 | 162 | 1.7 | 5.2 | 0.00 | 0.00 | 0.00 | 51 | 1009.8 |
| 20260505190731 | 78 | 203 | 3.5 | 6.1 | 0.00 | 0.00 | 0.00 | 48 | 1009.8 |
| 20260505190231 | 79 | 142 | 2.6 | 6.1 | 0.00 | 0.00 | 0.00 | 48 | 1009.9 |
| 20260505185728 | 79 | 149 | 1.7 | 2.6 | 0.00 | 0.00 | 0.00 | 47 | 1009.9 |
| 20260505185225 | 79 | 140 | 1.7 | 5.2 | 0.00 | 0.00 | 0.00 | 47 | 1009.7 |
| 20260505184720 | 79 | 157 | 0.9 | 4.3 | 0.00 | 0.00 | 0.00 | 48 | 1010.1 |
| 20260505184218 | 79 | 142 | 1.7 | 2.6 | 0.00 | 0.00 | 0.00 | 47 | 1010.0 |
| 20260505183715 | 79 | 139 | 2.6 | 6.1 | 0.00 | 0.00 | 0.00 | 47 | 1010.1 |
| 20260505183212 | 79 | 122 | 5.2 | 7.0 | 0.00 | 0.00 | 0.00 | 47 | 1009.9 |
| 20260505182708 | 79 | 194 | 2.6 | 2.6 | 0.00 | 0.00 | 0.00 | 48 | 1009.9 |
| 20260505182206 | 79 | 144 | 1.7 | 5.2 | 0.00 | 0.00 | 0.00 | 48 | 1010.0 |
| 20260505181702 | 79 | 175 | 1.7 | 8.7 | 0.00 | 0.00 | 0.00 | 49 | 1010.0 |
| 20260505181200 | 79 | 162 | 1.7 | 5.2 | 0.00 | 0.00 | 0.00 | 47 | 1010.0 |
| 20260505180655 | 79 | 168 | 2.6 | 5.2 | 0.00 | 0.00 | 0.00 | 47 | 1010.3 |
| 20260505180153 | 79 | 160 | 2.6 | 4.3 | 0.00 | 0.00 | 0.00 | 47 | 1010.0 |
| 20260505175649 | 78 | 192 | 0.9 | 4.3 | 0.00 | 0.00 | 0.00 | 51 | 1009.9 |
| 20260505175145 | 78 | 150 | 2.6 | 2.6 | 0.00 | 0.00 | 0.00 | 51 | 1010.1 |
| 20260505174642 | 80 | 152 | 1.7 | 5.2 | 0.00 | 0.00 | 0.00 | 45 | 1010.3 |
| 20260505174138 | 79 | 151 | 1.7 | 7.0 | 0.00 | 0.00 | 0.00 | 47 | 1009.8 |
| 20260505173635 | 79 | 154 | 1.7 | 4.3 | 0.00 | 0.00 | 0.00 | 46 | 1010.1 |
| 20260505173132 | 79 | 150 | 3.5 | 4.3 | 0.00 | 0.00 | 0.00 | 45 | 1010.1 |
| 20260505172629 | 79 | 129 | 3.5 | 6.1 | 0.00 | 0.00 | 0.00 | 45 | 1010.1 |
| 20260505172126 | 79 | 142 | 0.9 | 2.6 | 0.00 | 0.00 | 0.00 | 49 | 1010.4 |
| 20260505171621 | 78 | 186 | 4.3 | 6.1 | 0.00 | 0.00 | 0.00 | 48 | 1010.3 |
| 20260505171118 | 78 | 146 | 0.9 | 1.7 | 0.00 | 0.00 | 0.00 | 47 | 1010.5 |
| 20260505170615 | 78 | 159 | 1.7 | 2.6 | 0.00 | 0.00 | 0.00 | 49 | 1010.4 |
| 20260505170111 | 77 | 163 | 2.6 | 4.3 | 0.00 | 0.00 | 0.00 | 49 | 1010.6 |
| 20260505165606 | 78 | 135 | 1.7 | 4.3 | 0.00 | 0.00 | 0.00 | 49 | 1010.9 |
| 20260505165102 | 77 | 160 | 1.7 | 2.6 | 0.00 | 0.00 | 0.00 | 50 | 1011.1 |
| 20260505164558 | 78 | 147 | 1.7 | 2.6 | 0.00 | 0.00 | 0.00 | 48 | 1011.1 |
| 20260505164056 | 78 | 176 | 2.6 | 4.3 | 0.00 | 0.00 | 0.00 | 49 | 1010.8 |
| 20260505163554 | 77 | 175 | 1.7 | 5.2 | 0.00 | 0.00 | 0.00 | 50 | 1010.9 |
| 20260505163051 | 79 | 134 | 1.7 | 4.3 | 0.00 | 0.00 | 0.00 | 50 | 1011.2 |